Regional Weather Roundup
Issued by NWS Green Bay, WI

Home | Current Version | Previous Version | Graphics & Text | Print | Product List | Glossary Off
Versions: 1 2 3 4 5 6 7 8 9 10 11 12 13 14 15 16 17 18 19 20 21 22 23 24 25 26 27 28 29 30 31 32 33 34 35 36 37 38 39 40 41 42 43 44 45 46 47 48 49 50

000
ASUS43 KGRB 300859
RWRGRB

NORTH-CENTRAL AND NORTHEAST WISCONSIN REGIONAL WEATHER ROUNDUP
NATIONAL WEATHER SERVICE GREEN BAY WI
400 AM CDT TUE SEP 30 2014

WIZ005-009-010>012-018-019-301000-
NORTH CENTRAL WISCONSIN

CITY           SKY/WX    TMP DP  RH WIND       PRES   REMARKS
IRONWOOD       NOT AVBL
MANITOWISH WTR NOT AVBL
ARBOR VITAE    NOT AVBL
EAGLE RIVER    NOT AVBL
LAND O LAKES   NOT AVBL
RHINELANDER    CLOUDY    38  36  92 NE5       30.13S
PHILLIPS       NOT AVBL
ANTIGO         NOT AVBL
TOMAHAWK       NOT AVBL
MERRILL        NOT AVBL
$$

WIZ013-073-301000-
NORTHEAST WISCONSIN

CITY           SKY/WX    TMP DP  RH WIND       PRES   REMARKS
IRON MOUNTAIN  CLOUDY    41  36  82 N10       30.10S
MARINETTE      NOT AVBL
$$

WIZ017-030-035>037-045-301000-
CENTRAL WISCONSIN

CITY           SKY/WX    TMP DP  RH WIND       PRES   REMARKS
MEDFORD        NOT AVBL
WAUSAU         CLOUDY    40  36  86 NE6       30.12R
MOSINEE        NOT AVBL
MARSHFIELD     CLOUDY    42  36  79 NE7       30.12S
WISC RAPIDS    CLOUDY    41  36  82 E9        30.14R
STEVENS POINT  NOT AVBL
WAUPACA        NOT AVBL
SHAWANO        NOT AVBL
CLINTONVILLE   NOT AVBL
$$

WIZ038-039-048-051-301000-
FOX VALLEY

CITY           SKY/WX    TMP DP  RH WIND       PRES   REMARKS
NWS GREEN BAY  CLOUDY    43  39  86 N10       30.09F
APPLETON       NOT AVBL
OSHKOSH        CLOUDY    44  39  82 N9        30.10R
FOND DU LAC    CLOUDY    45  39  79 NE12      30.11R
$$

WIZ022-050-052-301000-
EAST CENTRAL WISCONSIN

CITY           SKY/WX    TMP DP  RH WIND       PRES   REMARKS
STURGEON BAY   NOT AVBL
MANITOWOC      NOT AVBL
SHEBOYGAN      CLOUDY    44  39  82 N10       30.08S
$$

LMZ563-521-522-541>543-301000-
LAKESHORE

STATION/POSITION TIME  TEMP    WIND        PRES    VSBY  WAVE
                       AIR SEA DIR/SP/G                  HT/PER
                 (UTC) (F)     (DEG/KT/KT) (MB)    (MI)  (FT/S)
SHEBOYGAN LKSHOR 0800   46 54  350/ 19/ 22 1019.0F
KEWAUNEE LKSHORE 0800   44     350/  7/ 10 1017.7F
NORTHPORT PIER   0800   46     340/ 18/ 23 1018.6S
N MID LAKE BUOY  0800   47 58  360/ 19/ 25 1017.5F         5/ 5
S GREEN BAY BUOY 0800   46     VRB 16/ 23  1019.9F
CHAMBERS ISLAND  0800   46     340/ 19/ 23 1019.0S
MENOMINEE LKSHOR 0800   44     350/ 14/ 18 1019.7F
$$


USA.gov is the U.S. government's official web portal to all federal, state and local government web resources and services.